Regional Weather Roundup
Issued by NWS Bismarck, ND

Home | Current Version | Previous Version | Text Only | Print | Product List | Glossary On
Versions: 1 2 3 4 5 6 7 8 9 10 11 12 13 14 15 16 17 18 19 20 21 22 23 24 25 26 27 28 29 30 31 32 33 34 35 36 37 38 39 40 41 42 43 44 45 46 47 48 49 50
000
ASUS43 KBIS 070910
RWRBIS

NWR BROADCAST TEXT
NATIONAL WEATHER SERVICE BISMARCK ND
300 AM CST WED DEC 07 2016

NOTE: "FAIR" INDICATES FEW OR NO CLOUDS BELOW 12,000 FEET WITH NO
SIGNIFICANT WEATHER AND/OR OBSTRUCTIONS TO VISIBILITY.


CITY           SKY/WX    TMP DP  RH WIND       PRES   REMARKS
WILLISTON      CLOUDY     4  -3  73 NW13      30.24R WCI -13
MINOT          LGT SNOW   7   2  80 W33G43    30.03R VSB 1   WCI -17
MINOT AFB      SNOW       6   2  84 NW39G46   30.01S VSB 1/2 WCI -21
BISMARCK       CLOUDY     4  -1  80 NW20G32   30.11R WCI -17
DICKINSON      MIX PCPN   0  -6  76 NW25G33   30.12R WCI -24
GARRISON         N/A      5   1  83 NW30G39   30.07R WCI -19
HETTINGER ARPT CLOUDY     0  -6  76 NW18G31   30.16R WCI -21
JAMESTOWN      PTCLDY     7   3  84 W26G38    29.94R BLWGSNOWWCI -15
BEACH          FLURRIES   1  -2  85 W24       30.23R WCI -22
CARRINGTON     SNOW       9   5  85 NW36G44   29.95R VSB 1/4 WCI -16
HAZEN          LGT SNOW   5   0  78 W26G37    30.14R WCI -18
RUGBY            N/A      7   5  92 NW31G37   29.96R FOG     WCI -17
STANLEY        LGT SNOW   3   0  85 NW23G35   30.12R WCI -19
TIOGA          LGT SNOW   1   0  92 NW31      30.15R WCI -24
WATFORD CITY   CLOUDY     3  -2  78 NW17G23   30.20R WCI -17
$$

CITY           SKY/WX    TMP DP  RH WIND       PRES   REMARKS
GRAND FORKS    LGT SNOW  16  11  80 NW30G41   29.81R VSB 1   WCI  -4
GRAND FORKS AF LGT SNOW  14   9  79 NW20G31   29.82R WCI  -3
DEVILS LAKE    LGT SNOW   9   5  84 NW35G41   29.87R FOG     WCI -15
FARGO          CLOUDY    13   7  77 W22       29.89R HAZE    WCI  -6
CANDO          CLOUDY    10   5  79 NW25G36   29.91R WCI -10
CAVALIER         N/A     16  12  86 NW28G41   29.77R FOG     WCI  -4
GRAFTON        FAIR      16  12  86 NW29G36   29.80R WCI  -4
GWINNER        CLOUDY    12   9  85 NW22G30   29.96R WCI  -7
LANGDON        SNOW      10   9  92 NW35G43   29.78R VSB 1/2 WCI -13
ROLLA          LGT SNOW   9   7  92 NW35G40   29.87R VSB 1   WCI -15
WALHALLA       LGT SNOW  14  14 100 NW20G35   29.79R WCI  -3
$$

CITY           SKY/WX    TMP DP  RH WIND       PRES   REMARKS
ABERDEEN       CLOUDY    10   1  67 W22G30    30.07R WCI -10
MOBRIDGE       CLOUDY     8  -1  66 W26G38    30.09R WCI -14
BUFFALO          N/A     -1  -8  72 NW25      30.11R WCI -25
RAPID CITY     CLOUDY     5  -3  69 N14       30.16R WCI -12
GLASGOW        CLOUDY     2  -6  69 NW30G39   30.32R WCI -23
SIDNEY         FLURRIES   5  -2  72 NW26G33   30.23R WCI -18
WOLF POINT     CLOUDY     6  -4  63 W15       30.32R WCI -12
GLENDIVE       FLURRIES   3  -3  76 NW23      30.25R WCI -19
MILES CITY     PTCLDY     0  -8  69 NW13      30.32R WCI -18
BAKER          CLOUDY    -1  -7  75 W21G30    30.21R WCI -24
$$

CITY           SKY/WX    TMP DP  RH WIND       PRES   REMARKS
BILLINGS       FLURRIES   3  -4  72 S7        30.25R WCI  -9
GREAT FALLS    CLOUDY    -3  -9  75 W5        30.35R WCI -13
REGINA         CLOUDY     1  -2  85 NW21      30.23R WCI -20
ESTEVAN        LGT SNOW   1  -4  78 NW26G35   30.15R BLWGSNOWWCI -23
$$




USA.gov is the U.S. government's official web portal to all federal, state and local government web resources and services.